Theta_e
325 325 326 326 326 325 324 323 324 323 324 323 323 322 322 322 321 313 308 318 324 329 325 315 314 314 313 310 312 307 296 293 296 298 299 304 302 305 309 310 313 316 314 318 325
325 325 325 325 326 325 325 324 324 323 323 324 323 321 321 321 312 307 317 327 330 327 315 313 309 312 306 306 308 301 295 297 300 299 298 303 304 304 303 304 311 315 322 325 325
323 323 324 324 325 325 325 324 323 323 323 322 322 320 321 318 306 302 322 325 329 325 318 317 315 311 302 303 304 302 295 298 301 305 306 304 302 305 304 302 308 312 318 321 321
320 322 322 323 324 324 325 324 323 323 323 322 322 320 320 313 284 313 324 325 330 321 318 315 311 304 301 298 302 299 304 302 304 306 305 303 306 304 303 304 309 313 322 321 320
319 320 321 322 323 323 324 324 324 323 322 322 322 320 312 303 302 317 323 326 323 318 314 311 307 303 299 299 300 299 301 304 305 305 305 306 304 303 304 306 308 317 321 320 320
318 318 319 320 321 322 323 323 323 323 322 323 322 320 305 293 310 317 317 319 317 315 314 313 310 309 303 301 297 300 301 302 304 303 303 303 302 304 306 305 306 315 316 318 319
316 317 318 318 320 321 322 322 323 322 322 322 322 313 303 297 311 312 313 316 314 313 311 313 312 308 306 301 304 302 297 299 301 300 300 304 299 301 306 307 305 304 305 311 317
316 316 317 317 318 320 321 322 322 321 322 322 321 309 298 311 310 308 311 310 316 313 311 313 311 308 305 305 302 297 296 290 296 298 301 301 291 299 303 303 303 302 301 302 305
314 315 316 317 317 318 319 320 321 321 322 321 310 303 297 313 305 307 308 309 313 312 311 312 311 304 303 295 291 292 285 288 292 297 296 298 291 299 303 300 300 299 299 300 301
313 314 315 316 317 317 318 319 320 320 318 315 310 300 301 298 304 306 307 307 308 307 306 305 301 295 295 292 283 287 286 287 287 292 293 293 294 297 299 298 298 298 298 299 300
312 312 313 314 316 318 315 311 304 304 308 300 299 296 300 304 306 302 305 305 306 303 294 300 294 290 293 297 292 291 288 286 289 294 293 291 292 295 297 295 295 296 297 297 299
311 312 312 313 315 317 311 303 304 306 299 305 302 300 303 304 297 300 306 298 299 294 296 295 292 295 297 297 295 292 288 287 290 292 291 289 289 292 293 294 296 297 298 299 298
310 311 311 312 313 311 305 305 311 309 296 300 302 299 299 302 296 297 302 300 295 292 293 288 290 297 295 293 293 292 289 287 288 290 290 288 285 288 291 293 295 297 299 299 299
310 310 310 311 304 303 302 309 311 309 289 291 296 300 301 301 294 301 302 300 297 291 291 290 293 293 293 292 294 289 293 292 290 287 282 288 277 284 288 289 291 293 294 296 297
309 310 310 310 301 297 301 308 309 303 276 292 294 306 302 296 295 296 303 298 292 292 292 287 290 289 289 291 294 290 293 291 289 285 283 283 280 282 286 286 290 292 292 294 296
308 308 309 305 301 300 304 307 303 285 276 287 295 294 293 296 295 296 296 298 297 292 291 288 293 292 291 293 294 294 290 289 287 286 278 283 281 278 283 287 288 291 292 294 295
308 308 305 304 295 303 304 299 283 276 287 285 287 293 291 291 292 293 290 290 285 283 282 284 287 291 293 289 291 291 287 273 273 276 275 281 281 283 286 289 288 288 291 294 296
308 307 304 302 303 302 297 286 275 279 284 290 290 291 287 291 291 291 288 286 289 285 282 280 278 288 293 289 287 288 287 276 269 273 275 281 278 283 291 293 292 292 292 294 295
307 301 299 299 302 300 288 276 277 282 285 286 289 286 286 290 289 289 288 286 289 289 281 280 280 288 291 292 292 286 285 287 278 271 273 277 280 286 289 289 290 291 292 293 295
300 297 295 299 301 294 282 278 280 285 287 288 283 286 283 286 286 285 286 289 288 291 288 285 279 287 290 292 292 290 292 282 277 266 267 275 276 279 284 288 289 290 291 294 295
298 289 296 301 298 286 276 277 278 286 287 285 284 285 285 285 287 285 285 288 291 290 291 286 282 280 288 286 287 288 286 285 284 280 274 271 274 282 287 289 290 290 294 294 293
294 283 297 299 283 282 274 276 284 283 287 285 284 286 286 288 286 286 286 288 293 292 286 288 283 279 283 286 290 291 288 288 281 277 278 278 276 286 286 288 288 290 294 292 292
286 286 297 295 278 277 272 272 281 281 284 283 282 284 287 286 284 287 288 292 293 291 288 289 282 277 281 285 285 286 287 290 285 282 278 275 279 287 287 287 289 291 291 291 291
286 280 287 289 285 278 271 271 274 284 284 286 283 286 285 282 285 285 286 289 291 292 295 293 284 282 278 281 284 283 287 288 287 278 281 281 283 282 284 285 287 289 290 290 289
285 282 285 280 281 279 279 274 276 273 283 285 282 284 283 280 282 283 287 289 290 293 292 290 283 284 285 283 285 285 286 287 285 287 282 283 282 286 284 285 287 289 289 289 289
282 283 279 282 283 279 279 271 276 278 279 277 279 282 284 281 282 279 286 288 287 289 289 291 283 285 278 282 284 282 285 286 286 287 287 286 285 291 290 291 287 288 289 289 289
287 287 285 284 281 278 277 277 278 281 282 283 283 282 281 284 287 288 290 290 289 287 287 287 285 282 279 280 280 276 283 285 286 288 287 283 288 293 290 290 290 288 289 289 290
Wind_Speed
17 17 17 15 13 12 11 10 9 9 6 6 6 3 3 6 9 3 4 4 2 4 6 6 4 4 2 2 2 3 5 4 6 6 2 2 2 1 2 5 4 4 4 2 12
13 15 18 17 15 13 12 10 9 9 9 7 6 4 1 5 3 6 7 6 2 4 4 5 4 6 2 1 1 5 4 10 5 4 2 4 4 4 2 3 4 3 5 6 10
14 13 14 17 17 15 13 12 10 8 8 8 7 4 1 2 3 5 2 5 8 3 1 1 3 0 1 1 2 5 7 4 2 2 3 3 0 4 6 2 6 7 8 8 5
14 13 13 14 16 16 16 13 11 10 9 7 6 5 1 1 5 1 2 1 6 4 2 2 2 4 4 4 2 3 6 3 0 3 2 2 3 5 2 2 1 8 12 8 10
11 13 13 13 14 15 16 16 13 11 10 9 8 7 2 2 8 3 3 2 3 4 6 3 2 3 6 4 1 2 3 3 4 3 4 2 5 3 6 4 6 7 12 12 11
14 14 13 13 13 14 16 17 16 13 12 10 9 8 2 4 3 4 4 3 3 3 5 4 5 3 3 2 4 1 2 5 2 2 3 4 3 3 8 3 3 5 8 9 11
14 14 14 13 14 13 14 17 17 15 14 13 12 4 3 11 2 2 3 2 4 4 4 4 1 1 1 0 2 2 1 6 5 0 4 4 6 8 8 6 6 6 7 8 11
15 14 14 14 15 15 13 15 18 16 14 13 11 2 6 7 8 6 2 3 2 4 2 6 3 2 2 1 4 4 3 1 4 3 6 7 8 9 7 5 10 8 9 8 12
17 16 16 16 14 14 13 12 15 16 16 13 5 4 7 1 4 9 3 2 0 1 2 3 1 4 2 5 4 3 5 5 5 6 4 8 5 7 9 6 9 9 9 9 11
20 18 18 18 16 14 12 10 11 14 12 8 3 4 4 6 6 4 3 3 2 3 3 3 3 4 2 5 8 8 5 4 4 2 5 5 11 6 4 4 9 9 10 10 10
21 18 18 19 17 17 11 4 5 9 12 8 11 3 1 4 4 5 5 4 1 3 6 3 6 14 14 16 3 6 4 4 3 5 7 8 9 9 7 6 9 11 11 12 12
21 19 19 19 22 20 11 10 12 1 7 14 16 11 1 7 4 6 12 8 8 7 6 3 17 8 7 5 10 5 1 4 6 4 2 4 8 10 7 8 13 14 16 16 12
22 20 21 18 18 14 14 21 5 4 2 9 12 16 4 8 7 15 17 5 7 10 13 7 3 11 8 8 11 14 12 5 6 4 3 5 8 9 8 7 9 17 19 15 17
21 21 22 19 9 5 8 11 3 4 6 9 10 9 8 4 4 7 15 10 7 17 6 8 4 15 9 14 13 13 9 8 5 2 4 4 9 6 8 10 8 13 10 14 13
26 25 25 26 9 8 4 10 10 4 18 11 14 7 17 14 12 9 16 3 11 9 10 11 11 11 18 13 13 5 8 9 4 2 1 2 4 9 5 10 18 17 12 11 12
28 25 26 19 3 6 7 8 7 14 15 11 14 18 17 15 5 9 13 2 4 5 3 7 4 11 8 8 13 7 6 4 4 2 8 9 7 6 8 13 7 7 8 8 8
28 26 22 12 9 9 11 6 13 22 2 8 11 17 29 20 20 14 18 19 11 11 14 3 11 3 8 9 5 7 11 2 1 3 8 3 8 11 10 13 8 1 5 6 7
28 25 20 9 9 11 5 8 22 15 21 2 10 19 28 18 18 20 23 21 23 6 9 12 8 17 9 9 11 12 13 9 10 7 5 5 11 10 15 13 9 9 8 5 6
29 14 12 11 13 7 7 15 9 4 19 11 12 12 21 24 9 18 23 28 24 20 10 9 11 4 5 5 15 10 14 9 7 3 2 6 7 10 12 9 8 7 7 8 8
15 12 13 17 17 10 6 11 2 2 3 9 22 14 17 25 16 18 24 24 18 25 3 6 0 5 18 2 9 14 13 7 2 5 5 6 6 9 6 14 7 7 8 8 7
10 9 13 18 12 8 9 8 8 4 4 6 15 12 18 14 16 12 14 11 21 25 16 4 3 5 12 14 17 10 14 5 7 6 7 3 9 9 17 14 15 11 12 11 9
12 9 17 16 7 5 7 11 7 8 5 3 4 9 10 24 15 19 22 20 27 21 26 9 5 5 16 3 7 17 24 20 10 9 3 2 9 5 10 10 9 10 12 7 7
11 5 16 18 10 11 1 3 8 5 9 10 7 4 3 8 13 19 22 20 26 23 21 16 6 4 4 5 5 17 8 20 4 3 9 6 12 3 4 4 6 12 9 8 8
6 7 8 11 5 14 9 9 8 6 5 5 6 6 2 4 5 5 12 6 17 27 21 18 7 22 18 25 9 14 22 18 24 6 20 14 21 2 1 6 3 5 8 9 8
4 5 6 18 21 22 18 15 19 8 7 10 4 15 17 7 4 6 10 20 13 20 23 15 22 15 24 7 16 20 26 27 21 30 20 27 21 19 9 9 7 8 7 7 8
8 10 3 11 12 17 20 10 22 16 12 9 11 17 19 18 16 6 1 18 21 14 22 18 9 20 12 7 12 15 21 21 24 30 25 23 19 24 11 13 9 11 9 9 9
2 4 11 20 15 15 22 28 20 17 12 15 25 11 7 24 17 23 17 13 7 2 22 24 14 13 23 10 7 1 23 30 25 27 28 24 35 32 16 16 17 9 10 10 9
Wind_Direction
234 231 224 223 222 222 220 215 200 196 209 193 185 200 315 323 315 298 250 238 256 307 328 319 9 341 24 354 5 103 78 203 229 174 256 311 259 352 301 113 72 18 142 226 146
230 235 233 228 222 220 218 216 212 191 199 201 183 204 276 329 285 243 250 289 215 330 11 19 6 352 37 261 357 103 143 219 210 148 220 256 177 196 142 119 57 33 33 102 130
234 228 231 231 224 217 216 213 209 199 200 204 185 190 279 350 302 246 185 255 229 226 122 330 288 222 129 37 194 175 192 212 203 63 13 5 256 299 143 220 196 185 175 157 152
232 234 226 228 228 224 213 212 208 197 195 206 187 180 115 90 221 238 233 234 184 193 117 274 217 132 142 189 236 174 241 229 296 39 357 289 300 329 305 233 85 177 163 162 173
224 229 232 226 223 224 221 209 206 198 193 194 182 164 133 183 252 178 211 157 158 171 175 198 153 152 166 192 169 208 254 247 118 332 290 271 250 210 277 297 355 123 159 180 186
229 218 225 226 227 222 222 217 202 194 191 191 175 135 128 218 267 172 196 145 149 175 171 190 174 221 204 139 156 51 254 312 288 257 258 228 237 161 272 107 12 158 204 193 200
227 226 217 222 222 226 222 221 211 190 186 188 182 138 203 228 31 242 188 212 164 197 148 227 203 116 124 145 188 137 104 336 278 237 248 171 268 211 234 308 289 266 224 225 229
218 226 219 217 221 218 225 222 212 191 183 183 175 132 242 223 251 325 201 263 259 182 204 272 239 182 194 249 39 115 101 199 285 185 238 138 257 269 248 257 279 285 289 219 236
220 222 219 214 213 214 213 229 221 198 184 169 142 152 244 145 162 230 240 189 122 150 250 285 253 157 85 99 42 316 225 206 308 235 215 194 247 244 247 223 264 275 273 274 268
216 217 216 213 207 206 207 212 226 206 185 149 110 155 274 212 186 188 191 230 200 136 113 196 152 142 120 142 194 198 216 244 211 274 185 224 251 242 249 225 242 261 264 267 265
212 207 217 216 203 195 184 158 192 216 200 187 160 218 210 196 110 165 154 103 304 143 168 204 168 202 196 200 140 145 172 225 255 257 210 226 245 249 253 277 271 262 260 254 258
211 204 205 211 204 195 166 203 204 120 195 202 173 201 102 159 125 178 148 164 177 179 137 154 221 194 180 203 220 233 217 251 293 280 253 286 269 270 236 238 241 254 258 261 265
206 203 198 198 192 196 192 202 72 52 245 197 181 193 179 164 188 185 172 164 181 182 187 181 193 178 180 197 207 222 227 214 227 339 309 325 287 269 272 258 262 255 252 254 247
203 200 193 179 162 146 201 195 159 71 229 184 196 197 209 188 239 165 179 149 187 200 166 253 263 186 186 215 196 224 179 216 226 73 250 43 287 287 273 264 254 257 252 247 242
203 195 192 186 127 175 155 152 127 126 227 185 163 156 167 195 128 209 174 149 181 165 168 208 188 181 207 196 183 212 168 195 173 163 341 193 295 278 274 271 260 260 244 240 237
204 196 190 192 151 164 128 152 155 226 219 164 144 170 166 199 201 125 168 106 150 161 267 208 196 198 190 172 189 159 92 64 70 110 262 195 191 239 229 231 264 264 247 244 250
195 194 182 179 172 149 147 167 205 226 67 176 158 175 184 184 192 163 175 190 173 174 205 184 238 256 160 157 171 157 134 6 318 199 237 198 204 255 258 255 228 203 219 178 144
193 186 183 174 162 147 111 199 219 189 189 103 163 178 190 169 193 179 170 191 210 208 154 181 204 213 213 187 181 177 167 162 182 200 236 146 226 250 235 248 246 252 223 156 149
185 178 172 166 164 159 156 213 205 231 195 156 159 184 192 199 158 178 190 193 197 195 163 175 236 153 176 166 156 193 206 159 105 14 65 211 274 298 272 264 235 224 151 164 162
181 171 181 155 147 154 189 220 227 256 338 171 195 182 202 188 187 184 186 196 193 203 60 201 335 214 193 227 192 183 167 184 22 142 237 259 264 234 225 241 212 189 169 174 166
174 170 160 154 146 170 200 195 221 195 144 218 209 205 209 187 193 191 184 182 189 190 203 192 132 290 152 209 179 160 194 188 142 180 191 215 250 214 213 210 215 199 181 177 168
163 173 158 147 163 160 192 170 196 179 152 132 322 246 190 208 206 203 207 202 194 172 199 192 138 172 203 217 235 205 205 190 189 208 224 176 264 236 220 216 213 187 180 176 155
155 119 165 155 174 178 290 163 176 160 189 171 205 203 285 205 202 209 206 211 187 187 187 177 194 121 122 311 282 212 195 205 167 80 204 148 258 260 154 172 197 159 168 152 155
143 144 153 174 175 178 151 195 186 181 186 166 191 162 143 243 226 267 200 230 187 202 198 179 194 207 207 212 141 196 204 208 207 192 226 215 241 179 196 220 218 167 151 170 170
140 168 167 173 196 185 172 166 187 174 209 178 190 196 189 229 241 267 252 214 199 206 201 197 217 217 232 199 182 202 205 204 205 220 214 230 230 223 211 207 204 184 188 173 186
137 155 118 173 155 164 179 197 193 192 159 205 218 208 203 207 209 187 149 217 206 194 192 202 228 219 238 205 198 203 208 210 214 225 230 249 250 246 210 263 189 198 180 196 201
242 45 130 156 162 173 200 188 188 169 214 195 211 218 205 223 212 230 236 199 284 207 205 199 203 186 224 204 134 215 201 206 214 222 214 223 232 246 224 226 233 177 202 204 189